www.pogodaiklimat.ru

Погода и климат >> Архив погоды >> Парагвай >> Энкарнасьон


ПОГОДА в Энкарнасьоне

  • Прогноз погоды в Энкарнасьоне
  • Монитор погоды в Энкарнасьоне

АРХИВ ПОГОДЫ в Энкарнасьоне

Время (UTC), дата Ветер
(напр.,м/с)
 
Видим.   Явления Облачность Т
(С)
Тd
(С)
f
(%)
Тe
(С)
Тes
(С)
Комфортность P
(гПа)
Po
(гПа)
Тmin
(С)
Tmax
(С)
R
(мм)
R24
(мм)
S
(см)
12 12.05 Ю 2 20 км 9/4 900 м
[Sc Ac As]
+12.6 +11.4 92 +12 +12 1018.2 994.1 +12.0
15 12.05 Ю 2 20 км 10/8 900 м
[Sc Ac As]
+15.8 +12.9 83 +16 +17 1019.7 995.7
18 12.05 Ю 2 20 км 9/6 900 м
[Sc Ac As]
+17.4 +13.4 77 +18 +19 1017.9 994.1
21 12.05 Ю 2 20 км 9/6 480 м
[Sc Ac As]
+16.8 +15.1 90 +17 +17 1018.2 994.4
00 13.05 Ю 6 20 км {дождь} 10/10 600 м
[Sc]
+16.0 +14.4 90 +15 +15 1019.6 995.6 +18.8 2
03 13.05 Ю 2 20 км 10/10 600 м
[Sc]
+14.6 +13.3 92 +14 +14 1020.2 996.1
06 13.05 Ю 3 20 км 10/10 600 м
[Sc]
+13.0 +11.4 90 +12 +12 1019.8 995.5
09 13.05 Ю 2 20 км {дождь} 10/10 600 м
[Sc]
+14.2 +13.8 97 +14 +14 1019.5 995.3
12 13.05 Ю 4 20 км 9/9 240 м
[St]
+14.4 +13.7 96 +13 +13 1022.1 997.9 +12.0 3
15 13.05 Ю 5 20 км 8/8 450 м
[Cu med, cong]
+17.4 +12.8 74 +17 +18 1022.6 998.7
18 13.05 ЮЗ 6 20 км 9/9 600 м
[Cu Sc]
+18.2 +10.7 62 +18 +18 1021.9 998.1
21 13.05 ЮЗ 2 20 км 6/6 540 м
[St]
+18.2 +12.6 70 +19 +19 1022.3 998.5
03 14.05 Ю 2 20 км 10/10 600 м
[Sc]
+14.6 +13.3 92 +14 +14 1020.2 996.1
09 14.05 штиль 0 20 км 8/8 900 м
[Sc]
+13.6 +10.5 82 +13 +13 1024.3 1000.0
12 14.05 Ю 3 20 км 6/0 2000 м
[Ac und]
+13.8 +10.3 79 +13 +14 1025.3 1001.0 +12.4
15 14.05 Ю 3 20 км 6/6 800 м
[Cu Sc]
+17.0 +11.5 70 +17 +20 1024.9 1000.9
18 14.05 ЮВ 3 20 км 9/9 750 м
[Sc]
+18.4 +12.3 68 +19 +20 1024.1 1000.1
21 14.05 ЮВ 3 20 км 9/9 750 м
[Sc]
+18.0 +12.6 71 +18 +18 1023.5 999.5
00 15.05 В 3 20 км 6/0 2000 м
[Ac und]
+17.4 +13.1 76 +18 +18 1024.1 1000.1 +19.0
03 15.05 ЮВ 3 20 км 8/0 2000 м
[Ac und Cs]
+16.4 +12.3 77 +16 +16 1024.5 1000.4
09 15.05 штиль 0 20 км 4/0 2000 м
[Ac und]
+13.0 +11.1 88 +12 +12 1023.2 998.9
12 15.05 В 3 20 км 5/5 750 м
[Sc]
+15.0 +13.2 89 +14 +15 1024.7 1000.5 +13.0
15 15.05 В 5 20 км 6/6 800 м
[Cu Sc]
+19.0 +12.1 64 +20 +22 1024.3 1000.4
18 15.05 В 4 20 км 5/5 1000 м
[Cu Sc]
+20.4 +12.6 61 +23 +25 комфорт 1023.1 999.4
21 15.05 В 4 20 км 5/4 1000 м
[Cu Sc]
+21.0 +14.1 65 +24 +24 комфорт 1021.9 998.3
00 16.05 В 4 20 км ясно +17.4 +14.8 85 +17 +17 1022.3 998.4 +22.5
03 16.05 ЮВ 3 20 км ясно +16.4 +13.9 85 +16 +16 1022.6 998.6
06 16.05 штиль 0 20 км ясно +15.4 +14.4 94 +15 +15 1022.4 998.3
09 16.05 В 3 20 км ясно +14.6 +13.5 93 +14 +14 1022.3 998.1
12 16.05 ЮВ 3 20 км ясно +16.6 +13.8 84 +16 +18 1023.1 999.1 +14.5
15 16.05 штиль 0 20 км ясно +21.0 +12.4 58 +23 +36 комфорт 1022.9 999.3
18 16.05 В 3 20 км ясно +24.4 +13.8 52 +27 +32 жарко 1020.2 996.9
21 16.05 В 3 20 км ясно +24.2 +9.4 39 +25 +25 комфорт 1019.5 996.2
00 17.05 В 3 20 км ясно +21.0 +9.9 49 +23 +23 комфорт 1020.2 996.6 +25.0
03 17.05 В 2 20 км ясно +18.4 +12.3 68 +20 +20 1020.4 996.6
09 17.05 В 2 20 км ясно +16.6 +13.8 84 +17 +17 1018.6 994.6
12 17.05 В 3 20 км ясно +18.0 +14.5 80 +18 +20 1020.3 996.5 +16.0
15 17.05 В 5 20 км ясно +22.0 +15.3 66 +26 +31 душно 1018.9 995.4
18 17.05 СВ 4 20 км ясно +26.6 +15.8 52 +30 +34 душно 1015.9 992.9
21 17.05 В 3 20 км ясно +23.8 +17.6 68 +28 +28 душно 1015.5 992.3
00 18.05 СВ 3 20 км ясно +21.0 +17.8 82 +26 +26 душно 1016.1 992.6 +27.0
03 18.05 СВ 3 20 км ясно +20.0 +18.1 89 +23 +23 комфорт 1016.2 992.6
06 18.05 СВ 4 20 км ясно +19.0 +17.3 90 +20 +20 1016.3 992.7
09 18.05 СВ 3 20 км ясно +28.0 +16.3 49 +31 +31 душно 1015.8 992.1
12 18.05 СВ 6 20 км ясно +19.0 +16.0 83 +20 +21 1016.2 992.6 +18.0
15 18.05 СВ 6 20 км ясно +24.0 +15.7 60 +27 +31 жарко 1017.4 994.2
18 18.05 СВ 5 20 км ясно +27.0 +13.5 43 +29 +32 жарко 1016.1 993.1
21 18.05 СВ 4 20 км 4/0 2000 м
[Ac und]
+24.4 +17.1 64 +28 +28 душно 1015.4 992.2
00 19.05 СВ 3 20 км 5/0 2000 м
[Ac und]
+22.2 +18.5 80 +27 +27 душно 1015.9 992.5 +27.5
06 19.05 В 3 20 км 4/0 2000 м
[Ac und]
+19.4 +16.8 85 +22 +22 комфорт 1017.4 993.7

 

Местоположение метеостанции Энкарнасьон (Парагвай): широта -27.31 долгота -55.83 высота над уровнем моря 91 м.

В архиве по умолчанию представлена погода в Энкарнасьоне за последнюю неделю. Архивные данные за месяц целиком и за предыдущие месяцы, начиная с января 2011 года, Вы можете получить, выбрав интересующий диапазон дат из раскрывающегося списка и нажав кнопку "Ввод!".


*Определитесь, кто Вы:
робот инопланетянин человек

Внимание! Время в таблицах - всемирное. Для получения местного времени необходимо прибавить поправку, которая равна -4 ч.

Смотрите также архив погоды в соседних городах и на ближайших метеорологических станциях:

Погода в Посадасе (Аргентина) (14 км)
Погода в Капитан Меса (Парагвай) (75 км)
Погода в Каасапе (Парагвай) (136 км)
Погода в Сан-Луис-Гонзаге (Риу-Гранди-ду-Сул, Бразилия) (146 км)
Погода в Санта-Розе (Риу-Гранди-ду-Сул, Бразилия) (147 км)
Погода в Сан Хуан Батистута (Парагвай) (149 км)
Погода в Сан-Луис Гонзага (Риу-Гранди-ду-Сул, Бразилия) (150 км)
Погода в Сан-Борхе (Риу-Гранди-ду-Сул, Бразилия) (150 км)
Погода в Куйкуйо (Парагвай) (167 км)
Погода в Вильяррике (Парагвай) (183 км)

Пояснения к столбцам:

Ветер - указаны скорость ветра в м/с - средняя за 10 мин, порывы в срок и между сроками (в фигурных скобках) и направление, откуда дует ветер: С - северный, СВ - северо-восточный, В - восточный, ЮВ - юго-восточный, Ю - южный, ЮЗ - юго-западный, З - западный, СЗ - северо-западный.
Видимость - горизонтальная дальность видимости в метрах или километрах. При видимости от 1 до 10 км при отсутствии осадков обычно наблюдается дымка, при ухудшении видимости до 1 км и менее - туман. В сухую погоду видимость может ухудшаться дымом, пылью или мглою.
Явления - указаны атмосферные явления, наблюдавшиеся в срок или в последний час перед сроком; фигурными скобками обозначены явления, наблюдавшиеся между сроками (за 1-3 часа до срока); квадратными скобками обозначены град или гололедные отложения с указанием их диаметра в мм.
Облачность - указаны через наклонную черту общая и нижняя облачность в баллах и высота нижней границы облаков в метрах; квадратными скобками обозначены формы облаков: Ci - перистые, Cs - перисто-слоистые, Cc - перисто-кучевые, Ac - высококучевые, As - высокослоистые, Sc - слоисто-кучевые, Ns - слоисто-дождевые, Cu - кучевые, Cb - кучево-дождевые. Подробнее классификацию облаков см. в Атласе облаков (PDF).
T - Температура воздуха - температура, измеренная на высоте 2 м над землей.
Td - Температура точки росы - температура, при понижении до которой содержащийся в воздухе водяной пар достигнет насыщения.
f - Относительная влажность воздуха - влажноcть воздуха, измеренная на высоте 2 м над землей.
Te - Эффективная температура - температура, которую ощущает одетый по сезону человек в тени. Характеристика душности погоды. При расчете учитывается влияние влажности воздуха и скорости ветра на теплоощущения человека.
Tes - Эффективная температура на солнце - температура, которую ощущает человек, с поправкой на солнечный нагрев. Характеристика знойности погоды. Зависит от высоты солнца над горизонтом, облачности и скорости ветра. Ночью, в пасмурную погоду, а также при ветре 12 м/с и более поправка равна нулю.
P - Атмосферное давление - приведенное к уровню моря атмосферное давление.
Po - Атмосферное давление - измеренное на уровне метеостанции атмосферное давление.
Tmin - Минимальная температура - минимум температуры воздуха на высоте 2 м над землей.
Tmax - Максимальная температура - максимум температуры воздуха на высоте 2 м над землей.
R - Количество осадков - Количество выпавших осадков за период времени, мм. При наведении курсора мыши на число - период времени, за который выпало указанное количество осадков.
R24 - Количество осадков - Количество выпавших осадков за 24 часа, мм.
S - Снежный покров - Высота снежного покрова, см. При наведении курсора мыши на число - состояние снежного покрова и степень покрытия местности в баллах.